Location: Cheching
(60.0667°N, 164.2167°W)
Time: 13:23:20
(UTC+00:00)

STRAND 1 - Pass Details

Date: 25 January 2021
Orbit: 768 x 780 km, 98.4° (Epoch: 04 March)

Event Time Altitude Azimuth Distance (km) Brightness Sun altitude
Rises 16:48:03 0° 157° (SSE) 3,239 ? -18.8°
Reaches altitude 10° 16:50:21 10° 157° (SSE) 2,318 ? -18.5°
Maximum altitude 16:55:28 84° 69° (ENE) 788 ? -17.9°
Drops below altitude 10° 17:00:38 10° 343° (NNW) 2,341 ? -17.3°
Sets 17:02:58 0° 343° (NNW) 3,274 ? -17.0°
